EJU63MP LEIB-LIRN

Flight info

Callsign EJU63MP
Flight time 1h 27m
Altitude 38000
Route KABRE DCT ELTAN DCT MORSS DCT BAVON DCT ORKUM DCT ELSAG DCT ALG DCT POKAV DCT ROTUN DCT PNZ
Aircraft A320/M-SDE3FGHIRWY/LB1

Departure

Time 2026-05-06 18:48
Airport Ibiza Airport (LEIB)

Arrival

Time 2026-05-06 20:15
Airport Naples International Airport (LIRN)
Time Latitude Longitude Altitude Speed Heading
2026-05-06 18:18 38.87623 1.37057 9 ft 0 kts 332°
2026-05-06 18:38 38.87621 1.37058 8 ft 2 kts 332°
2026-05-06 18:39 38.87598 1.37074 11 ft 4 kts 332°
2026-05-06 18:39 38.87579 1.37087 8 ft 4 kts 341°
2026-05-06 18:39 38.87574 1.37090 8 ft 0 kts 353°
2026-05-06 18:40 38.87575 1.37089 8 ft 0 kts 353°
2026-05-06 18:41 38.87570 1.37089 9 ft 2 kts 333°
2026-05-06 18:41 38.87558 1.37105 11 ft 2 kts 262°
2026-05-06 18:41 38.87559 1.37112 11 ft 0 kts 255°
2026-05-06 18:43 38.87559 1.37111 11 ft 1 kts 255°
2026-05-06 18:43 38.87550 1.37067 10 ft 4 kts 254°
2026-05-06 18:43 38.87549 1.37062 9 ft 0 kts 254°
2026-05-06 18:43 38.87536 1.37036 8 ft 6 kts 239°
2026-05-06 18:44 38.87505 1.36965 9 ft 9 kts 242°
2026-05-06 18:44 38.87477 1.36895 9 ft 9 kts 242°
2026-05-06 18:44 38.87449 1.36829 10 ft 8 kts 242°
2026-05-06 18:44 38.87396 1.36802 8 ft 12 kts 155°
2026-05-06 18:45 38.87318 1.36852 8 ft 12 kts 154°
2026-05-06 18:45 38.87265 1.36814 8 ft 12 kts 241°
2026-05-06 18:45 38.87216 1.36694 8 ft 19 kts 243°
2026-05-06 18:45 38.87178 1.36599 8 ft 18 kts 242°
2026-05-06 18:46 38.87106 1.36424 8 ft 18 kts 242°
2026-05-06 18:46 38.87046 1.36283 9 ft 18 kts 242°
2026-05-06 18:46 38.86985 1.36134 8 ft 21 kts 242°
2026-05-06 18:46 38.86919 1.35972 8 ft 20 kts 242°
2026-05-06 18:47 38.86861 1.35834 8 ft 12 kts 237°
2026-05-06 18:47 38.86792 1.35840 7 ft 13 kts 152°
2026-05-06 18:47 38.86713 1.35901 6 ft 9 kts 125°
2026-05-06 18:47 38.86736 1.35988 5 ft 16 kts 62°
2026-05-06 18:48 38.86883 1.36343 6 ft 80 kts 62°
2026-05-06 18:48 38.87242 1.37213 8 ft 137 kts 62°
2026-05-06 18:48 38.87736 1.38407 358 ft 155 kts 64°
2026-05-06 18:48 38.88191 1.39670 1071 ft 158 kts 72°
2026-05-06 18:49 38.88484 1.41072 1592 ft 171 kts 78°
2026-05-06 18:49 38.88759 1.42648 1957 ft 189 kts 78°
2026-05-06 18:49 38.89069 1.44367 2367 ft 207 kts 78°
2026-05-06 18:49 38.89395 1.46224 3007 ft 217 kts 78°
2026-05-06 18:50 38.89725 1.48138 3800 ft 221 kts 78°
2026-05-06 18:50 38.90103 1.50070 4598 ft 228 kts 71°
2026-05-06 18:50 38.90730 1.52050 5031 ft 251 kts 68°
2026-05-06 18:50 38.91458 1.54147 5605 ft 267 kts 66°
2026-05-06 18:51 38.92244 1.56339 6448 ft 273 kts 65°
2026-05-06 18:51 38.93048 1.58577 7262 ft 279 kts 64°
2026-05-06 18:51 38.93865 1.60856 8091 ft 284 kts 63°
2026-05-06 18:51 38.94695 1.63183 8926 ft 289 kts 64°
2026-05-06 18:52 38.95533 1.65547 9767 ft 293 kts 63°
2026-05-06 18:52 38.96390 1.67976 10322 ft 308 kts 64°
2026-05-06 18:52 38.97306 1.70582 10590 ft 332 kts 64°
2026-05-06 18:52 38.98268 1.73332 10957 ft 349 kts 64°
2026-05-06 18:53 38.99270 1.76211 11606 ft 356 kts 65°
2026-05-06 18:53 39.00288 1.79142 12302 ft 362 kts 65°
2026-05-06 18:53 39.01325 1.82122 12992 ft 368 kts 65°
2026-05-06 18:53 39.02376 1.85144 13681 ft 373 kts 65°
2026-05-06 18:54 39.03443 1.88208 14279 ft 378 kts 65°
2026-05-06 18:54 39.04522 1.91315 14877 ft 383 kts 65°
2026-05-06 18:54 39.05614 1.94465 15473 ft 388 kts 65°
2026-05-06 18:54 39.06717 1.97659 16083 ft 393 kts 65°
2026-05-06 18:55 39.07831 2.00890 16682 ft 397 kts 65°
2026-05-06 18:55 39.08945 2.04113 17270 ft 402 kts 65°
2026-05-06 18:55 39.10090 2.07415 17874 ft 406 kts 65°
2026-05-06 18:55 39.11246 2.10749 18434 ft 410 kts 65°
2026-05-06 18:56 39.12413 2.14118 18932 ft 414 kts 65°
2026-05-06 18:56 39.13590 2.17526 19408 ft 419 kts 65°
2026-05-06 18:56 39.14779 2.20976 19880 ft 423 kts 65°
2026-05-06 18:56 39.15975 2.24466 20345 ft 428 kts 65°
2026-05-06 18:57 39.17181 2.27991 20807 ft 432 kts 65°
2026-05-06 18:57 39.17986 2.30344 21101 ft 436 kts 66°
2026-05-06 18:57 39.19216 2.33940 21550 ft 440 kts 66°
2026-05-06 18:57 39.20865 2.38755 22134 ft 446 kts 66°
2026-05-06 18:58 39.22124 2.42431 22561 ft 451 kts 66°
2026-05-06 18:58 39.23395 2.46146 22988 ft 455 kts 66°
2026-05-06 18:58 39.24674 2.49906 23402 ft 459 kts 66°
2026-05-06 18:58 39.25959 2.53698 23781 ft 463 kts 66°
2026-05-06 18:59 39.26814 2.56225 24028 ft 465 kts 66°
2026-05-06 18:59 39.28114 2.60066 24395 ft 468 kts 66°
2026-05-06 18:59 39.29424 2.63933 24765 ft 471 kts 66°
2026-05-06 18:59 39.30743 2.67821 25110 ft 474 kts 66°
2026-05-06 19:00 39.32069 2.71727 25493 ft 477 kts 66°
2026-05-06 19:00 39.33835 2.76961 25912 ft 482 kts 66°
2026-05-06 19:00 39.34741 2.79653 26139 ft 484 kts 66°
2026-05-06 19:00 39.36085 2.83656 26479 ft 487 kts 66°
2026-05-06 19:01 39.37435 2.87689 26826 ft 490 kts 66°
2026-05-06 19:01 39.38775 2.91690 27156 ft 493 kts 66°
2026-05-06 19:01 39.40142 2.95770 27497 ft 496 kts 66°
2026-05-06 19:01 39.41517 2.99869 27832 ft 499 kts 66°
2026-05-06 19:02 39.42904 3.03998 28157 ft 502 kts 66°
2026-05-06 19:02 39.44294 3.08151 28479 ft 504 kts 66°
2026-05-06 19:02 39.45684 3.12325 28806 ft 506 kts 66°
2026-05-06 19:02 39.47079 3.16521 29125 ft 509 kts 66°
2026-05-06 19:03 39.48480 3.20742 29388 ft 512 kts 66°
2026-05-06 19:03 39.49885 3.24983 29687 ft 514 kts 66°
2026-05-06 19:03 39.51296 3.29253 29970 ft 517 kts 66°
2026-05-06 19:03 39.52709 3.33535 30218 ft 519 kts 66°
2026-05-06 19:04 39.54108 3.37778 30481 ft 521 kts 66°
2026-05-06 19:04 39.55532 3.42099 30792 ft 521 kts 66°
2026-05-06 19:04 39.56952 3.46420 31139 ft 520 kts 66°
2026-05-06 19:04 39.58366 3.50723 31503 ft 519 kts 66°
2026-05-06 19:05 39.59779 3.55028 31858 ft 518 kts 66°
2026-05-06 19:05 39.61188 3.59324 32200 ft 518 kts 66°
2026-05-06 19:05 39.62595 3.63619 32561 ft 517 kts 66°
2026-05-06 19:05 39.63997 3.67909 32910 ft 516 kts 66°
2026-05-06 19:06 39.65374 3.72136 33253 ft 516 kts 66°
2026-05-06 19:06 39.66768 3.76419 33601 ft 515 kts 66°
2026-05-06 19:06 39.68161 3.80699 33954 ft 514 kts 66°
2026-05-06 19:06 39.69550 3.84972 34249 ft 514 kts 66°
2026-05-06 19:07 39.70938 3.89248 34543 ft 513 kts 67°
2026-05-06 19:07 39.72322 3.93519 34835 ft 513 kts 67°
2026-05-06 19:07 39.73701 3.97787 35118 ft 512 kts 67°
2026-05-06 19:07 39.75080 4.02054 35390 ft 513 kts 67°
2026-05-06 19:08 39.76440 4.06271 35648 ft 512 kts 67°
2026-05-06 19:08 39.77816 4.10541 35889 ft 512 kts 67°
2026-05-06 19:08 39.79190 4.14812 36144 ft 512 kts 67°
2026-05-06 19:08 39.80559 4.19078 36399 ft 511 kts 67°
2026-05-06 19:09 39.81922 4.23341 36646 ft 510 kts 67°
2026-05-06 19:09 39.83278 4.27596 36904 ft 509 kts 67°
2026-05-06 19:09 39.84632 4.31848 37146 ft 509 kts 67°
2026-05-06 19:09 39.85986 4.36100 37380 ft 508 kts 68°
2026-05-06 19:10 39.87319 4.40286 37598 ft 508 kts 68°
2026-05-06 19:10 39.88670 4.44532 37827 ft 507 kts 68°
2026-05-06 19:10 39.90021 4.48778 37960 ft 508 kts 68°
2026-05-06 19:11 39.92717 4.57278 37974 ft 508 kts 68°
2026-05-06 19:11 39.95391 4.65790 37965 ft 507 kts 70°
2026-05-06 19:12 39.97484 4.74560 37975 ft 507 kts 74°
2026-05-06 19:12 39.99483 4.83306 37975 ft 507 kts 74°
2026-05-06 19:13 40.01490 4.92124 37974 ft 507 kts 74°
2026-05-06 19:13 40.03490 5.00953 37968 ft 507 kts 74°
2026-05-06 19:14 40.05484 5.09784 37971 ft 507 kts 74°
2026-05-06 19:14 40.07465 5.18559 37984 ft 507 kts 75°
2026-05-06 19:15 40.09444 5.27405 37991 ft 507 kts 75°
2026-05-06 19:15 40.11415 5.36258 37975 ft 508 kts 75°
2026-05-06 19:16 40.13384 5.45113 38014 ft 508 kts 75°
2026-05-06 19:16 40.15331 5.53915 38003 ft 508 kts 75°
2026-05-06 19:17 40.17282 5.62787 38002 ft 508 kts 75°
2026-05-06 19:17 40.19229 5.71659 37983 ft 507 kts 75°
2026-05-06 19:18 40.21171 5.80527 37994 ft 507 kts 75°
2026-05-06 19:18 40.23103 5.89397 37997 ft 507 kts 75°
2026-05-06 19:19 40.25018 5.98207 38001 ft 506 kts 75°
2026-05-06 19:19 40.26940 6.07071 38000 ft 506 kts 75°
2026-05-06 19:20 40.28844 6.15934 37992 ft 505 kts 76°
2026-05-06 19:20 40.30530 6.24858 38001 ft 504 kts 79°
2026-05-06 19:21 40.31981 6.33835 38008 ft 503 kts 80°
2026-05-06 19:21 40.33412 6.42748 38001 ft 503 kts 79°
2026-05-06 19:22 40.34926 6.51703 37985 ft 503 kts 79°
2026-05-06 19:22 40.36466 6.60642 37993 ft 502 kts 79°
2026-05-06 19:23 40.37981 6.69572 37997 ft 502 kts 79°
2026-05-06 19:23 40.39460 6.78445 37996 ft 501 kts 79°
2026-05-06 19:24 40.40946 6.87379 37978 ft 501 kts 79°
2026-05-06 19:24 40.42423 6.96304 37993 ft 500 kts 79°
2026-05-06 19:25 40.43896 7.05225 37995 ft 500 kts 79°
2026-05-06 19:25 40.45343 7.14083 37996 ft 500 kts 79°
2026-05-06 19:26 40.46795 7.23002 37995 ft 499 kts 79°
2026-05-06 19:26 40.48247 7.31920 37998 ft 500 kts 79°
2026-05-06 19:27 40.49690 7.40847 37996 ft 499 kts 80°
2026-05-06 19:27 40.51113 7.49719 37995 ft 499 kts 80°
2026-05-06 19:28 40.52538 7.58656 37990 ft 500 kts 80°
2026-05-06 19:28 40.53958 7.67588 37992 ft 499 kts 80°
2026-05-06 19:29 40.55368 7.76517 38000 ft 498 kts 80°
2026-05-06 19:29 40.56771 7.85440 37997 ft 498 kts 80°
2026-05-06 19:30 40.58157 7.94294 37998 ft 497 kts 80°
2026-05-06 19:30 40.59544 8.03205 37999 ft 497 kts 80°
2026-05-06 19:31 40.60923 8.12111 38013 ft 496 kts 80°
2026-05-06 19:31 40.62894 8.25416 38032 ft 494 kts 86°
2026-05-06 19:32 40.63621 8.34409 38007 ft 494 kts 86°
2026-05-06 19:32 40.64332 8.43410 38006 ft 494 kts 86°
2026-05-06 19:33 40.65043 8.52413 37995 ft 494 kts 86°
2026-05-06 19:33 40.65751 8.61418 37992 ft 494 kts 86°
2026-05-06 19:34 40.66440 8.70358 37993 ft 494 kts 87°
2026-05-06 19:34 40.67125 8.79365 37984 ft 494 kts 86°
2026-05-06 19:35 40.67809 8.88375 37992 ft 494 kts 86°
2026-05-06 19:35 40.68488 8.97386 37994 ft 494 kts 86°
2026-05-06 19:36 40.69152 9.06338 37999 ft 494 kts 86°
2026-05-06 19:36 40.69810 9.15347 37986 ft 494 kts 86°
2026-05-06 19:37 40.70462 9.24352 37995 ft 493 kts 87°
2026-05-06 19:37 40.71108 9.33353 37997 ft 493 kts 87°
2026-05-06 19:38 40.71740 9.42285 37995 ft 493 kts 87°
2026-05-06 19:38 40.72369 9.51268 37984 ft 492 kts 87°
2026-05-06 19:39 40.72988 9.60252 37999 ft 492 kts 87°
2026-05-06 19:39 40.73605 9.69224 38003 ft 491 kts 87°
2026-05-06 19:40 40.74214 9.78130 37997 ft 491 kts 87°
2026-05-06 19:40 40.74811 9.87088 37988 ft 490 kts 87°
2026-05-06 19:41 40.75401 9.96044 37993 ft 490 kts 87°
2026-05-06 19:41 40.75980 10.04909 38001 ft 490 kts 88°
2026-05-06 19:42 40.76558 10.13805 38002 ft 490 kts 88°
2026-05-06 19:42 40.77133 10.22762 37986 ft 490 kts 88°
2026-05-06 19:43 40.77692 10.31717 37997 ft 490 kts 88°
2026-05-06 19:43 40.78242 10.40675 38002 ft 490 kts 88°
2026-05-06 19:44 40.78796 10.49629 38004 ft 490 kts 88°
2026-05-06 19:44 40.79345 10.58519 37979 ft 490 kts 88°
2026-05-06 19:45 40.79880 10.67477 37996 ft 489 kts 88°
2026-05-06 19:45 40.80407 10.76434 38004 ft 489 kts 88°
2026-05-06 19:46 40.80932 10.85391 38003 ft 489 kts 88°
2026-05-06 19:46 40.81449 10.94284 38006 ft 489 kts 88°
2026-05-06 19:47 40.81959 11.03245 38024 ft 489 kts 88°
2026-05-06 19:47 40.82459 11.12196 38015 ft 489 kts 88°
2026-05-06 19:48 40.82960 11.21140 38012 ft 489 kts 88°
2026-05-06 19:48 40.83455 11.30094 38007 ft 489 kts 88°
2026-05-06 19:49 40.83935 11.39038 37994 ft 488 kts 88°
2026-05-06 19:49 40.84392 11.47928 38000 ft 489 kts 89°
2026-05-06 19:50 40.84622 11.52416 37795 ft 489 kts 89°
2026-05-06 19:50 40.84858 11.56891 37520 ft 489 kts 89°
2026-05-06 19:50 40.85094 11.61371 37247 ft 489 kts 89°
2026-05-06 19:50 40.85326 11.65847 36979 ft 489 kts 89°
2026-05-06 19:51 40.85552 11.70325 36692 ft 489 kts 89°
2026-05-06 19:51 40.85773 11.74807 36428 ft 489 kts 89°
2026-05-06 19:51 40.85993 11.79286 36175 ft 489 kts 89°
2026-05-06 19:51 40.86213 11.83776 35918 ft 490 kts 90°
2026-05-06 19:52 40.86433 11.88263 35667 ft 490 kts 90°
2026-05-06 19:52 40.86647 11.92685 35436 ft 490 kts 90°
2026-05-06 19:52 40.86866 11.97190 35176 ft 490 kts 90°
2026-05-06 19:52 40.87082 12.01685 34931 ft 491 kts 90°
2026-05-06 19:53 40.87298 12.06180 34682 ft 490 kts 90°
2026-05-06 19:53 40.87511 12.10664 34443 ft 488 kts 90°
2026-05-06 19:53 40.87724 12.15137 34201 ft 488 kts 90°
2026-05-06 19:53 40.88019 12.19614 33963 ft 489 kts 88°
2026-05-06 19:54 40.88416 12.24085 33688 ft 491 kts 86°
2026-05-06 19:54 40.88873 12.28499 33422 ft 492 kts 85°
2026-05-06 19:54 40.89363 12.32975 33151 ft 493 kts 85°
2026-05-06 19:54 40.89847 12.37467 32898 ft 494 kts 86°
2026-05-06 19:55 40.90311 12.41974 32616 ft 496 kts 86°
2026-05-06 19:55 40.90751 12.46501 32354 ft 497 kts 87°
2026-05-06 19:55 40.91171 12.51035 31990 ft 496 kts 87°
2026-05-06 19:55 40.91579 12.55560 31263 ft 495 kts 87°
2026-05-06 19:56 40.91986 12.60060 30604 ft 492 kts 87°
2026-05-06 19:56 40.92393 12.64537 29955 ft 489 kts 87°
2026-05-06 19:56 40.92800 12.68989 29271 ft 486 kts 87°
2026-05-06 19:56 40.93202 12.73398 28656 ft 481 kts 87°
2026-05-06 19:57 40.93597 12.77717 27912 ft 479 kts 86°
2026-05-06 19:57 40.93994 12.82075 27326 ft 474 kts 86°
2026-05-06 19:57 40.94386 12.86376 26751 ft 469 kts 86°
2026-05-06 19:57 40.94772 12.90641 26087 ft 466 kts 86°
2026-05-06 19:58 40.95152 12.94887 25429 ft 464 kts 86°
2026-05-06 19:58 40.95526 12.99105 24824 ft 460 kts 87°
2026-05-06 19:58 40.95893 13.03289 24252 ft 456 kts 87°
2026-05-06 19:58 40.96255 13.07435 23694 ft 452 kts 87°
2026-05-06 19:59 40.96614 13.11545 23062 ft 448 kts 86°
2026-05-06 19:59 40.96972 13.15621 22396 ft 444 kts 86°
2026-05-06 19:59 40.97322 13.19620 21750 ft 442 kts 86°
2026-05-06 19:59 40.97674 13.23641 21191 ft 438 kts 86°
2026-05-06 20:00 40.98019 13.27635 20657 ft 434 kts 86°
2026-05-06 20:00 40.98360 13.31585 20139 ft 430 kts 86°
2026-05-06 20:00 40.98698 13.35495 19633 ft 426 kts 86°
2026-05-06 20:00 40.99033 13.39368 19137 ft 422 kts 85°
2026-05-06 20:01 40.99362 13.43204 18691 ft 417 kts 86°
2026-05-06 20:01 40.99682 13.47002 18162 ft 414 kts 86°
2026-05-06 20:01 40.99997 13.50776 17545 ft 412 kts 86°
2026-05-06 20:01 41.00305 13.54477 16999 ft 408 kts 86°
2026-05-06 20:02 41.00614 13.58194 16504 ft 404 kts 86°
2026-05-06 20:02 41.00920 13.61868 16036 ft 399 kts 86°
2026-05-06 20:02 41.01224 13.65499 15577 ft 395 kts 86°
2026-05-06 20:02 41.01524 13.69090 15127 ft 390 kts 86°
2026-05-06 20:03 41.01818 13.72641 14680 ft 386 kts 86°
2026-05-06 20:03 41.02109 13.76147 14225 ft 380 kts 86°
2026-05-06 20:03 41.02398 13.79599 13590 ft 375 kts 86°
2026-05-06 20:03 41.02679 13.83017 13045 ft 372 kts 86°
2026-05-06 20:04 41.02951 13.86362 12521 ft 368 kts 86°
2026-05-06 20:04 41.03222 13.89733 11927 ft 368 kts 87°
2026-05-06 20:04 41.03490 13.93082 11420 ft 364 kts 87°
2026-05-06 20:04 41.03756 13.96401 10917 ft 361 kts 87°
2026-05-06 20:05 41.04020 13.99700 10469 ft 357 kts 88°
2026-05-06 20:05 41.04279 14.02901 10343 ft 343 kts 88°
2026-05-06 20:05 41.04528 14.05983 10220 ft 329 kts 88°
2026-05-06 20:05 41.04765 14.08909 10064 ft 312 kts 88°
2026-05-06 20:06 41.04989 14.11737 9809 ft 306 kts 89°
2026-05-06 20:06 41.05205 14.14526 9468 ft 303 kts 88°
2026-05-06 20:06 41.05417 14.17282 9068 ft 299 kts 88°
2026-05-06 20:06 41.05625 14.19979 8604 ft 297 kts 88°
2026-05-06 20:07 41.05836 14.22690 8140 ft 293 kts 87°
2026-05-06 20:07 41.06044 14.25356 7552 ft 290 kts 87°
2026-05-06 20:07 41.06249 14.28000 6920 ft 287 kts 87°
2026-05-06 20:07 41.06453 14.30637 6522 ft 285 kts 87°
2026-05-06 20:08 41.06651 14.33186 6477 ft 271 kts 87°
2026-05-06 20:08 41.06840 14.35603 6390 ft 258 kts 87°
2026-05-06 20:08 41.07020 14.37912 6284 ft 247 kts 87°
2026-05-06 20:08 41.07190 14.40138 6175 ft 239 kts 88°
2026-05-06 20:09 41.07226 14.42252 6052 ft 227 kts 103°
2026-05-06 20:09 41.06708 14.44171 5795 ft 219 kts 126°
2026-05-06 20:09 41.05730 14.45627 5523 ft 206 kts 147°
2026-05-06 20:09 41.04554 14.46612 5258 ft 197 kts 153°
2026-05-06 20:10 41.03388 14.47553 4974 ft 196 kts 152°
2026-05-06 20:10 41.02234 14.48490 4652 ft 193 kts 152°
2026-05-06 20:10 41.01097 14.49414 4356 ft 191 kts 151°
2026-05-06 20:10 40.99918 14.50157 4077 ft 186 kts 173°
2026-05-06 20:11 40.98700 14.49905 3914 ft 176 kts 209°
2026-05-06 20:11 40.97890 14.48767 3746 ft 175 kts 240°
2026-05-06 20:11 40.97252 14.47394 3554 ft 176 kts 236°
2026-05-06 20:11 40.96578 14.46017 3298 ft 179 kts 236°
2026-05-06 20:12 40.95917 14.44629 3039 ft 178 kts 237°
2026-05-06 20:12 40.95261 14.43237 2772 ft 179 kts 238°
2026-05-06 20:12 40.94606 14.41845 2507 ft 178 kts 238°
2026-05-06 20:12 40.93953 14.40453 2240 ft 178 kts 238°
2026-05-06 20:13 40.93309 14.39083 1998 ft 171 kts 238°
2026-05-06 20:13 40.92708 14.37805 1741 ft 160 kts 238°
2026-05-06 20:13 40.92149 14.36615 1493 ft 146 kts 238°
2026-05-06 20:13 40.91626 14.35503 1299 ft 140 kts 238°
2026-05-06 20:14 40.91108 14.34412 1092 ft 140 kts 236°
2026-05-06 20:14 40.90594 14.33326 906 ft 139 kts 237°
2026-05-06 20:14 40.90095 14.32251 653 ft 137 kts 237°
2026-05-06 20:14 40.89594 14.31186 430 ft 135 kts 235°
2026-05-06 20:15 40.89100 14.30133 254 ft 133 kts 236°
2026-05-06 20:15 40.88678 14.29242 260 ft 91 kts 238°
2026-05-06 20:15 40.88428 14.28710 280 ft 52 kts 238°
2026-05-06 20:15 40.88284 14.28472 285 ft 25 kts 217°
2026-05-06 20:16 40.88156 14.28372 289 ft 16 kts 208°
2026-05-06 20:16 40.88079 14.28319 289 ft 9 kts 197°
2026-05-06 20:16 40.88053 14.28376 288 ft 9 kts 89°
2026-05-06 20:16 40.88050 14.28456 287 ft 9 kts 96°
2026-05-06 20:17 40.88035 14.28529 289 ft 8 kts 122°
2026-05-06 20:17 40.87993 14.28523 292 ft 8 kts 218°
2026-05-06 20:17 40.87946 14.28468 292 ft 9 kts 229°
2026-05-06 20:17 40.87939 14.28399 294 ft 7 kts 278°
2026-05-06 20:18 40.87931 14.28354 292 ft 4 kts 216°
2026-05-06 20:18 40.87889 14.28345 295 ft 5 kts 187°
2026-05-06 20:18 40.87878 14.28343 296 ft 0 kts 187°